{"data":{"norad_id":55432,"intl_designator":"2023-014AT","name":"STARLINK-5637","alt_names":[],"object_type":"PAYLOAD","status":"ACTIVE","operator":null,"country":"US","launch_date":"2023-01-31","launch_site_code":"AFWTR","launch_vehicle":null,"mission":null,"orbit_class":"UNKNOWN","rcs_meters":null,"size_class":null,"mass_kg":null,"dimensions":null,"purposes":["comms"],"wikipedia_slug":null,"has_3d_model":false,"image_url":null,"decayed_at":null,"tle_current":{"epoch":"2026-05-25T02:11:51.438912Z","epoch_age_seconds":73902,"freshness":"FRESH","line1":"1 55432U 23014AT  26145.09156758  .00000625  00000+0  60135-4 0  9999","line2":"2 55432  69.9992 271.7867 0003479 268.2120  91.8641 14.98337359182515","mean_motion":14.98337359,"eccentricity":0.0003479,"inclination_deg":69.9992,"raan_deg":271.7867,"arg_perigee_deg":268.212,"mean_anomaly_deg":91.8641,"bstar":6.0135e-5,"rev_number":18251,"period_min":96.106527101551,"perigee_km":569.61516974751,"apogee_km":574.4510981267,"semimajor_km":6950.1701339371,"source":"CELESTRAK","updated_at":"2026-05-25T13:38:17.800395Z"}}}